Regional Weather Roundup
Issued by NWS

Home | Current Version | Previous Version | Graphics & Text | Print | Product List | Glossary On
Versions: 1 2 3 4 5 6 7 8 9 10 11 12 13 14 15 16 17 18 19 20 21 22 23 24 25 26 27 28 29 30 31 32 33 34 35 36 37 38 39 40 41 42 43 44 45 46 47 48 49 50
537
ASUS45 KSLC 280310
RWRUT

UTAH REGIONAL WEATHER ROUNDUP
NATIONAL WEATHER SERVICE SALT LAKE CITY UT
900 PM MDT TUE SEP 27 2016

UTZ001>011-023>025-280400-

NORTHERN UTAH

CITY           SKY/WX    TMP DP  RH WIND       PRES   REMARKS
BRIGHAM CITY     N/A     62  53  74 CALM      30.14R
HILL AFB       CLEAR     67  48  50 NE2       30.16S
LOGAN          CLEAR     63  49  60 S3        30.15R
OGDEN          CLEAR     62  49  62 CALM      30.14R
PROVO AIRPORT  CLEAR     65  51  60 N6        30.15R
SALT LAKE CITY CLEAR     65  52  62 CALM      30.14R
VERNAL         CLEAR     58  49  72 W7        30.19R
WENDOVER       CLEAR     63  46  55 NW6       30.14S
HEBER CITY     CLEAR     57  41  54 E8        30.19R
WEST JORDAN    CLEAR     61  48  62 CALM      30.16S

$$

UTZ012>022-026-027-280400-

SOUTHERN/CENTRAL UTAH

CITY           SKY/WX    TMP DP  RH WIND       PRES   REMARKS
BLANDING       MOCLDY    64  31  29 N7        30.29R
BRYCE CANYON   CLEAR     46  38  73 W6        30.33R
CEDAR CITY     CLEAR     63  34  33 SW6       30.17R
DELTA          CLEAR     68  34  28 N3        30.14R
MILFORD        CLEAR     64  35  34 NW9       30.14R
MOAB/CYNLANDS  CLEAR     66  36  32 CALM      30.12R
PRICE          CLEAR     59  40  49 N9        30.22R
ST GEORGE      CLEAR     79  43  27 S3        30.03R

$$

REGIONAL REPORTS     COLORADO/ARIZONA

CITY           SKY/WX    TMP DP  RH WIND       PRES   REMARKS
CRAIG, CO      CLEAR     49  37  63 CALM      30.26R
GRAND JUNCTION CLEAR     69  33  26 N10       30.14R
RIFLE          CLEAR     62  39  42 SE5       30.18R
MONTROSE       CLEAR     59  39  47 S9        30.23R
CORTEZ         CLEAR     56  39  53 NE8       30.23R
PAGE, AZ       MOCLDY    72  35  25 SW5       30.10R
GRAND CANYON   PTCLDY    54  39  57 E3        30.26R
KINGMAN        PTCLDY    70  50  49 W14       30.05R
FLAGSTAFF      CLOUDY    48  45  89 N3        30.27R

$$

REGIONAL REPORTS    NEVADA/IDAHO/WYOMING

CITY           SKY/WX    TMP DP  RH WIND       PRES   REMARKS
LAS VEGAS, NV  CLOUDY    85  39  19 SW3       29.94S
ELY            CLEAR     59  30  33 SE5       30.20R
ELKO           CLEAR     68  38  33 E3        30.11R
POCATELLO, ID  CLEAR     60  48  64 E6        30.14R
BURLEY         CLEAR     60  50  69 N3        30.08S
EVANSTON, WY   CLEAR     61  39  44 N7        30.30R
ROCK SPRINGS   CLEAR     60  36  40 CALM      30.28R

$$




USA.gov is the U.S. government's official web portal to all federal, state and local government web resources and services.